Elko, NV

8:47 PM PST on February 23, 2017 (GMT -0800)
Elko Regional

Weather History for KEKO - November, 2011

Change the Weather History Date:

Thursday, November 10, 2011

  Actual Average Record
Temperature  
Mean Temperature 36 °F 37 °F  
Max Temperature 56 °F 51 °F 74 °F (1894)
Min Temperature 16 °F 23 °F -3 °F (1898)
Degree Days  
Heating Degree Days 29 28  
Month to date heating degree days 336 262  
Since 1 July heating degree days 910 1091  
Cooling Degree Days 0 0  
Month to date cooling degree days 0 0  
Year to date cooling degree days 468 383  
Moisture  
Dew Point 13 °F    
Average Humidity 47    
Maximum Humidity 74    
Minimum Humidity 20    
Precipitation  
Precipitation 0.00 in 0.04 in 0.80 in (1901)
Month to date precipitation 0.25 0.36  
Year to date precipitation 7.23 7.96  
Snow  
Snow 0.00 in 0.10 in 5.00 in (1924)
Month to date snowfall 1.3 0.8  
Since 1 July snowfall 1.6 1.5  
Since 1 September snowfall 1.6 1.5  
Snow Depth 0.00 in    
Sea Level Pressure  
Sea Level Pressure 30.32 in    
Wind  
Wind Speed 4 mph (ENE)    
Max Wind Speed 13 mph    
Max Gust Speed 15 mph    
Visibility 10 miles    
Events      
T = Trace of Precipitation, MM = Missing Value Source: NWS Daily Summary

Daily Weather History Graph

Daily Weather History Graph

Search for Another Location

Airport or City:

Trip Planner

Search our weather history database for the weather conditions in past years. The results will help you decide how hot, cold, wet, or windy it might be!

Date:

Astronomy

Nov. 10, 2011 Rise Set
Actual Time 6:24 AM PST 4:29 PM PST
Civil Twilight 5:55 AM PST 4:58 PM PST
Nautical Twilight 5:22 AM PST 5:31 PM PST
Astronomical Twilight 4:49 AM PST 6:03 PM PST
Moon 4:19 PM PST (11/10) 6:20 AM PST (11/10)
Length of Visible Light 11h 03m
Length of Day
10h 05m
Full, 100% of the Moon is Illuminated
Nov 10
Full
Nov 10
Full
Nov 18
Last Quarter
Nov 24
New
Dec 2
First Quarter

Hourly Weather History & Observations

Time (PST) Temp. Windchill Dew Point Humidity Pressure Visibility Wind Dir Wind Speed Gust Speed Precip Events Conditions
12:56 AM 23.0 °F 13.9 °F 12.0 °F 63% 30.43 in 10.0 mi ENE 8.1 mph - N/A   Clear
1:56 AM 21.0 °F 10.6 °F 12.0 °F 68% 30.44 in 10.0 mi ENE 9.2 mph - N/A   Clear
2:56 AM 21.0 °F 9.9 °F 10.9 °F 65% 30.43 in 10.0 mi East 10.4 mph - N/A   Clear
4:56 AM 18.0 °F 6.9 °F 10.0 °F 71% 30.47 in 10.0 mi ENE 9.2 mph - N/A   Clear
5:56 AM 17.1 °F 8.7 °F 9.0 °F 71% 30.48 in 10.0 mi ENE 5.8 mph - N/A   Clear
6:56 AM 16.0 °F 10.4 °F 9.0 °F 74% 30.51 in 10.0 mi East 3.5 mph - N/A   Clear
7:56 AM 19.4 °F 12.8 °F 10.4 °F 68% 30.38 in 10.0 mi ENE 4.6 mph - N/A   Clear
8:56 AM 30.0 °F - 12.9 °F 49% 30.46 in 10.0 mi Calm Calm - N/A   Clear
9:56 AM 37.9 °F - 15.1 °F 39% 30.43 in 10.0 mi Calm Calm - N/A   Clear
10:56 AM 43.0 °F - 15.1 °F 32% 30.38 in 10.0 mi Calm Calm - N/A   Clear
11:56 AM 46.9 °F - 17.1 °F 30% 30.32 in 10.0 mi Calm Calm - N/A   Clear
12:56 PM 51.8 °F - 15.8 °F 24% 30.24 in 10.0 mi West 4.6 mph - N/A   Clear
1:56 PM 54.0 °F - 15.1 °F 22% 30.22 in 10.0 mi Calm Calm - N/A   Clear
2:56 PM 54.0 °F - 14.0 °F 21% 30.20 in 10.0 mi Calm Calm - N/A   Clear
3:56 PM 53.1 °F - 14.0 °F 21% 30.20 in 10.0 mi Calm Calm - N/A   Clear
4:56 PM 41.0 °F - 14.0 °F 33% 30.23 in 10.0 mi Calm Calm - N/A   Clear
5:56 PM 35.6 °F 32.8 °F 14.0 °F 41% 30.16 in 10.0 mi NNE 3.5 mph - N/A   Clear
6:56 PM 33.1 °F 27.7 °F 15.1 °F 48% 30.27 in 10.0 mi ENE 5.8 mph - N/A   Clear
7:56 PM 30.9 °F 23.5 °F 15.1 °F 52% 30.27 in 10.0 mi East 8.1 mph - N/A   Clear
8:56 PM 28.9 °F 22.8 °F 12.9 °F 51% 30.25 in 10.0 mi East 5.8 mph - N/A   Clear
9:56 PM 28.0 °F 20.8 °F 14.0 °F 56% 30.21 in 10.0 mi East 6.9 mph - N/A   Clear
10:56 PM 26.1 °F 21.9 °F 15.1 °F 63% 30.18 in 10.0 mi Variable 3.5 mph - N/A   Clear
11:56 PM 23.0 °F - 14.0 °F 68% 30.18 in 10.0 mi Calm Calm - N/A   Clear